User: anonymous   Login
Location: Newark
(37.9717°N, 99.9089°W)
Time: 19:46:55
(UTC+00:00)
Language:

ISS - Orbit

View from above orbital plane
View from above orbital plane
View from above satellite
View from above satellite

Ground track
Ground track

The orbit data is extracted from the following two-line orbital elements,

1 25544U 98067A   19231.50489143  .00016717  00000-0  10270-3 0  9030
2 25544  51.6392  47.1447 0007317 301.5013  58.5422 15.50379548 25073
Epoch (UTC): 19 August 2019 12:07:02
Eccentricity: 0.0007317
inclination: 51.6392°
perigee height: 410 km
apogee height: 420 km
right ascension of ascending node: 47.1447°
argument of perigee: 301.5013°
revolutions per day: 15.50379548
mean anomaly at epoch: 58.5422°
orbit number at epoch: 2507

The dashed part of the orbit path shows where the satellite is in the earth's shadow,  

DLR